DW8923 Weather Reports


time (UTC)temp
C
wind
direction
speed
KPH
gust
KPH
rain 1hr
cm
rain 24hr
cm
rain mn
cm
humidity
%
barometer
mb
20260510191504 30 112 11.3 19.3 0.00 0.00 0.00 59 1011.4
20260510184602 30 80 6.4 16.1 0.00 0.00 0.00 63 1011.5
20260510183057 29 150 6.4 19.3 0.00 0.00 0.00 63 1011.7
20260510181600 29 108 3.2 17.7 0.00 0.00 0.00 65 1011.6
20260510180054 29 113 4.8 16.1 0.00 0.00 0.00 66 1011.8
20260510174551 28 111 4.8 19.3 0.00 0.00 0.00 68 1011.9
20260510173046 28 140 8.0 20.9 0.00 0.00 0.00 67 1012.1
20260510171542 28 148 11.3 19.3 0.00 0.00 0.00 69 1012.1
20260510170042 28 174 9.7 20.9 0.00 0.00 0.00 70 1012.3
20260510164537 27 136 9.7 20.9 0.00 0.00 0.00 71 1012.6
20260510163035 27 97 3.2 16.1 0.00 0.00 0.00 75 1012.7
20260510161535 27 115 4.8 16.1 0.00 0.00 0.00 75 1012.6
20260510160035 26 129 6.4 19.3 0.00 0.00 0.00 76 1012.7
20260510154527 26 82 6.4 14.5 0.00 0.00 0.00 77 1012.8
20260510153033 26 86 4.8 9.7 0.00 0.00 0.00 76 1012.6
20260510151525 26 66 4.8 11.3 0.00 0.00 0.00 77 1012.6
20260510150032 26 130 4.8 12.9 0.00 0.00 0.00 76 1012.6
20260510144522 25 30 6.4 11.3 0.00 0.00 0.00 77 1012.4
20260510143020 25 119 3.2 11.3 0.00 0.00 0.00 78 1012.3
20260510141523 25 177 3.2 11.3 0.00 0.00 0.00 80 1012.3
20260510140008 23 136 3.2 8.0 0.00 0.00 0.00 83 1012.2
20260510134503 23 152 3.2 11.3 0.00 0.00 0.00 85 1011.9
20260510133001 22 130 3.2 6.4 0.00 0.00 0.00 88 1011.7
20260510131558 21 147 1.6 8.0 0.00 0.00 0.00 90 1011.4
20260510130056 21 119 0.0 4.8 0.00 0.00 0.00 92 1011.1
20260510130002 21 130 1.6 4.8 0.00 0.00 0.00 92 1011.1
20260510124601 20 98 0.0 3.2 0.00 0.00 0.00 92 1010.9
20260510123054 20 73 0.0 1.6 0.00 0.00 0.00 92 1010.7
20260510121548 20 152 0.0 1.6 0.00 0.00 0.00 91 1010.3
20260510120046 20 152 0.0 0.0 0.00 0.00 0.00 91 1010.0
20260510114544 20 152 0.0 8.0 0.00 0.00 0.00 90 1009.6
20260510113043 20 157 1.6 4.8 0.00 0.00 0.00 90 1009.6
20260510111542 20 164 0.0 4.8 0.00 0.00 0.00 89 1009.6
20260510110040 20 149 0.0 1.6 0.00 0.00 0.00 88 1009.5
20260510104538 20 170 0.0 4.8 0.00 0.00 0.00 88 1009.5
20260510103038 20 121 0.0 4.8 0.00 0.00 0.00 88 1009.5
20260510101535 21 165 0.0 12.9 0.00 0.00 0.00 88 1009.2
20260510100036 21 152 0.0 8.0 0.00 0.00 0.00 87 1009.0
20260510094540 21 119 0.0 6.4 0.00 0.00 0.00 87 1008.9
20260510093031 21 137 3.2 8.0 0.00 0.00 0.00 86 1008.6
20260510091532 21 142 3.2 8.0 0.00 0.00 0.00 86 1008.6
20260510090028 21 156 4.8 11.3 0.00 0.00 0.00 85 1008.6
20260510084527 21 161 3.2 8.0 0.00 0.00 0.00 84 1008.7
20260510083025 21 166 3.2 9.7 0.00 0.00 0.00 83 1008.7
20260510081534 22 134 4.8 11.3 0.00 0.00 0.00 83 1009.0
20260510080018 22 148 1.6 11.3 0.00 0.00 0.00 82 1009.1
20260510074518 22 132 3.2 11.3 0.00 0.00 0.00 82 1009.2
20260510073016 22 150 3.2 9.7 0.00 0.00 0.00 81 1009.3
20260510071515 22 136 3.2 14.5 0.00 0.00 0.00 81 1009.3
20260510070013 22 115 4.8 9.7 0.00 0.00 0.00 80 1009.1
20260510064516 22 159 3.2 9.7 0.00 0.00 0.00 80 1009.1
20260510063016 22 151 1.6 6.4 0.00 0.00 0.00 79 1009.1
20260510061521 22 140 3.2 8.0 0.00 0.00 0.00 80 1009.1
20260510060009 22 180 1.6 8.0 0.00 0.00 0.00 82 1009.1
20260510054507 22 136 1.6 6.4 0.00 0.00 0.00 83 1009.0
20260510053006 22 130 1.6 4.8 0.00 0.00 0.00 86 1008.9
20260510051514 22 98 0.0 4.8 0.00 0.00 0.00 87 1009.0
20260510050059 22 123 0.0 1.6 0.00 0.00 0.00 86 1009.0
20260510044558 22 167 0.0 0.0 0.00 0.00 0.00 84 1008.9
20260510043100 23 167 0.0 0.0 0.00 0.00 0.00 82 1009.0
20260510041635 23 167 0.0 0.0 0.00 0.00 0.00 81 1009.1
20260510040056 23 97 0.0 0.0 0.00 0.00 0.00 80 1009.1
20260510034602 23 97 0.0 0.0 0.00 0.00 0.00 78 1008.8
20260510033116 24 97 0.0 0.0 0.00 0.00 0.00 79 1008.7
20260510031557 24 121 0.0 1.6 0.00 0.00 0.00 78 1008.6
20260510030055 25 121 0.0 1.6 0.00 0.00 0.00 76 1008.5
20260510024609 25 121 0.0 0.0 0.00 0.00 0.00 74 1008.1
20260510023059 26 121 0.0 0.0 0.00 0.00 0.00 71 1007.9
20260510021554 26 121 0.0 0.0 0.00 0.00 0.00 70 1007.7
20260510020053 27 121 0.0 3.2 0.00 0.00 0.00 70 1007.5
20260510014612 27 107 0.0 4.8 0.00 0.00 0.00 69 1007.3
20260510013102 27 141 1.6 6.4 0.00 0.00 0.00 68 1007.0
20260510011552 28 110 1.6 9.7 0.00 0.00 0.00 67 1007.0
20260510010051 28 111 3.2 6.4 0.00 0.00 0.00 66 1006.9
20260510004553 29 98 1.6 6.4 0.00 0.00 0.00 64 1006.8
20260510003050 30 94 3.2 11.3 0.00 0.00 0.00 61 1006.6
20260510001549 31 85 4.8 12.9 0.00 0.00 0.00 58 1006.6
20260510000048 32 119 1.6 8.0 0.00 0.00 0.00 51 1006.4
20260509234548 32 256 0.0 1.6 0.00 0.00 0.00 46 1006.3
20260509233051 32 256 0.0 3.2 0.00 0.00 0.00 45 1006.2
20260509231557 32 224 0.0 6.4 0.00 0.00 0.00 46 1006.2
20260509230046 32 261 4.8 16.1 0.00 0.00 0.00 47 1006.1
20260509224545 32 92 3.2 9.7 0.00 0.00 0.00 47 1006.2
20260509223050 32 99 1.6 4.8 0.00 0.00 0.00 47 1006.3
20260509221545 32 121 1.6 8.0 0.00 0.00 0.00 48 1006.1
20260509220045 32 99 0.0 8.0 0.00 0.00 0.00 48 1006.3
20260509214540 33 128 0.0 8.0 0.00 0.00 0.00 47 1006.4
20260509213036 33 135 1.6 6.4 0.00 0.00 0.00 45 1006.5
20260509211533 32 325 0.0 4.8 0.00 0.00 0.00 44 1006.8
20260509210041 32 321 0.0 4.8 0.00 0.00 0.00 45 1007.0
20260509204525 32 294 0.0 4.8 0.00 0.00 0.00 46 1007.3
20260509203024 32 144 1.6 6.4 0.00 0.00 0.00 47 1007.6
20260509201525 31 172 4.8 11.3 0.00 0.00 0.00 48 1007.9
20260509200016 31 109 1.6 9.7 0.00 0.00 0.00 50 1008.1
20260509194513 30 236 0.0 6.4 0.00 0.00 0.00 51 1008.1
20260509193009 30 44 0.0 6.4 0.00 0.00 0.00 58 1008.2